Weather History for Harrison, AR

Change the Weather History Date:

Thursday, January 17, 2013

  Actual Average Record
Temperature  
Mean Temperature 38 °F 36 °F  
Max Temperature 45 °F 46 °F 75 °F (1952)
Min Temperature 30 °F 26 °F -2 °F (1982)
Degree Days  
Heating Degree Days 27 29  
Month to date heating degree days 492 493  
Since 1 July heating degree days 1900 2092  
Cooling Degree Days 0 0  
Month to date cooling degree days 0 0  
Year to date cooling degree days 0 0  
Moisture  
Dew Point 25 °F    
Average Humidity 62    
Maximum Humidity 75    
Minimum Humidity 49    
Precipitation  
Precipitation 0.00 in 0.09 in 1.12 in (1913)
Month to date precipitation 1.27 1.44  
Year to date precipitation 1.27 1.44  
Snow  
Snow 0.00 in 0.10 in 2.00 in (1977)
Month to date snowfall T 1.7  
Since 1 July snowfall 0.3 3.5  
Snow Depth 0.00 in    
Sea Level Pressure  
Sea Level Pressure 30.36 in    
Wind  
Wind Speed 7 mph (NW)    
Max Wind Speed 15 mph    
Max Gust Speed 20 mph    
Visibility 10 miles    
Events      
T = Trace of Precipitation, MM = Missing Value Source: NWS Daily Summary

Daily Weather History Graph

Daily Weather History Graph

Search for Another Location

Airport:

Trip Planner

Search our weather history database for the weather conditions in past years. The results will help you decide how hot, cold, wet, or windy it might be!

Date:

Astronomy

Jan. 17, 2013 Rise Set
Actual Time 7:22 AM CST 5:23 PM CST
Civil Twilight 6:54 AM CST 5:51 PM CST
Nautical Twilight 6:22 AM CST 6:23 PM CST
Astronomical Twilight 5:52 AM CST 6:53 PM CST
Moon 10:42 AM CST (1/17) No Moon Set
Length of Visible Light 10h 57m
Length of Day
10h 01m
Waxing Crescent, 38% of the Moon is Illuminated
Jan 17
Waxing Crescent
Jan 18
First Quarter
Jan 26
Full
Feb 3
Last Quarter
Feb 10
New

Hourly Weather History & Observations

Time (CST) Temp. Windchill Dew Point Humidity Pressure Visibility Wind Dir Wind Speed Gust Speed Precip Events Conditions
12:53 AM 33.1 °F 27.7 °F 18.0 °F 54% 30.19 in 10.0 mi WNW 5.8 mph - N/A   Clear
1:53 AM 34.0 °F 27.2 °F 19.0 °F 54% 30.19 in 10.0 mi WNW 8.1 mph 17.3 mph N/A   Clear
2:53 AM 35.1 °F 28.6 °F 19.0 °F 52% 30.19 in 10.0 mi WNW 8.1 mph - N/A   Clear
3:53 AM 34.0 °F 27.2 °F 18.0 °F 52% 30.20 in 10.0 mi NW 8.1 mph - N/A   Clear
4:53 AM 34.0 °F 26.6 °F 19.0 °F 54% 30.22 in 10.0 mi WNW 9.2 mph - N/A   Clear
5:53 AM 33.8 °F 27.0 °F 19.4 °F 56% 30.22 in 10.0 mi WNW 8.1 mph - N/A   Clear
6:53 AM 32.0 °F 23.6 °F 21.0 °F 64% 30.27 in 10.0 mi WNW 10.4 mph - N/A   Clear
7:53 AM 32.0 °F 25.6 °F 23.0 °F 69% 30.32 in 10.0 mi WNW 6.9 mph - N/A   Clear
8:53 AM 34.0 °F 27.2 °F 26.1 °F 73% 30.35 in 10.0 mi NW 8.1 mph - N/A   Clear
9:53 AM 39.9 °F 32.5 °F 30.0 °F 68% 30.38 in 10.0 mi NNW 12.7 mph - N/A   Scattered Clouds
10:00 AM 39.2 °F 32.5 °F 30.2 °F 70% 30.36 in 10.0 mi NNW 10.4 mph - N/A   Mostly Cloudy
10:53 AM 39.9 °F 33.9 °F 30.9 °F 70% 30.39 in 10.0 mi North 9.2 mph - N/A   Scattered Clouds
11:05 AM 39.2 °F 33.0 °F 30.2 °F 70% 30.37 in 10.0 mi NNW 9.2 mph - N/A   Mostly Cloudy
11:53 AM 42.1 °F 36.6 °F 30.0 °F 62% 30.40 in 10.0 mi North 9.2 mph 19.6 mph N/A   Scattered Clouds
12:53 PM 42.1 °F 36.6 °F 28.9 °F 60% 30.39 in 10.0 mi NNW 9.2 mph 17.3 mph N/A   Partly Cloudy
1:53 PM 44.1 °F 39.0 °F 28.9 °F 55% 30.39 in 10.0 mi North 9.2 mph - N/A   Clear
2:53 PM 44.1 °F 39.5 °F 28.0 °F 53% 30.39 in 10.0 mi NNW 8.1 mph - N/A   Clear
3:53 PM 45.0 °F 41.8 °F 27.0 °F 49% 30.40 in 10.0 mi NW 5.8 mph - N/A   Clear
4:53 PM 43.0 °F 38.8 °F 26.1 °F 51% 30.42 in 10.0 mi NW 6.9 mph - N/A   Clear
5:53 PM 39.0 °F 35.7 °F 26.1 °F 60% 30.45 in 10.0 mi NW 4.6 mph - N/A   Clear
6:53 PM 37.0 °F 34.5 °F 25.0 °F 62% 30.47 in 10.0 mi WNW 3.5 mph - N/A   Clear
7:53 PM 36.0 °F 33.3 °F 25.0 °F 64% 30.48 in 10.0 mi WNW 3.5 mph - N/A   Clear
8:53 PM 35.1 °F 32.2 °F 25.0 °F 67% 30.49 in 10.0 mi WNW 3.5 mph - N/A   Clear
9:53 PM 35.1 °F 32.2 °F 25.0 °F 67% 30.50 in 10.0 mi WNW 3.5 mph - N/A   Clear
10:53 PM 33.1 °F - 25.0 °F 72% 30.50 in 10.0 mi Calm Calm - N/A   Clear
11:53 PM 32.0 °F - 24.1 °F 73% 30.50 in 10.0 mi Calm Calm - N/A   Clear